一网星座-0013星(ONEWEB-0013 )

导读 | 星芒AI

ONEWEB-0013 是 OneWeb 卫星通信公司发射的第13批低轨通信卫星之一,旨在为全球提供高速互联网服务。该卫星运行于近地轨道,采用先进通信技术,支持偏远地区和航空、航海等场景的网络连接。OneWeb 项目计划部署数百颗卫星,构建全球覆盖的宽带网络,助力数字包容与通信公平。ONEWEB-0013 的成功部署进一步推动了该星座的建设进程。

基本信息
目录编号:
45131
目录名称:
ONEWEB-0013
国际标识:
2020-008A
轨道中心:
EARTH
卫星名称:
一网星座-0013星
卫星全名:
--
卫星状态:
在轨 (已飞行2137 天)
发射日期:
2020-02-06 UTC
国别 :
英国 (GB)
星等 :
--
轨道信息
数据来源 国际轨道数据
星历时间: 2025-12-13T03:16:09+0800
14小时前
查看轨道信息
半长轴: 7603.442km
偏心率: 0.0002428
轨道倾角: 87.852°
近地点辐角 118.706°
升交点赤经 90.471°
平近点角 241.431°
近地点: 1223.46km
远地点: 1227.154km
周期: 109.970分钟
每日圈数: 13.094456
详细信息
平衡模式:
三轴稳定
覆盖范围:
全球
运营商:
一网卫星公司
运营商所在国:
英国
制造商(研发单位):
空客防务与航天公司
制造商所在国:
法国大都会
使用方式:
暂无
卫星简介
OneWeb卫星网络由648颗重约125公斤的微型卫星组成,运行在1200公里的轨道上。 每颗卫星都能够提供至少每秒8千兆位的吞吐量,以使用其高吞吐量的Ku频段有效载荷为家庭和移动平台提供互联网接入。该卫星仍在工作。
2D轨道图
3D轨道图
轨道高度分析图
轨道倾角分析图
轨道综合分析图
查看轨道综合分析图